This is the latest recevied weather packets stored in our database for station/object KD9CCP. If no packets are shown the sender has not sent any weather packets the latest 10 day(s).
| Time | Temp. | Humidity | Pressure | Rain* | Wind** | Luminosity | Snow |
|---|---|---|---|---|---|---|---|
| 1778114035 | 3.89° C | 63% | 1015 hPa | 0 mm | - | 0 W/m² | - |
| 1778113731 | 3.89° C | 64% | 1015.2 hPa | 0 mm | - | 1 W/m² | - |
| 1778113427 | 3.89° C | 65% | 1014.9 hPa | 0 mm | - | 2 W/m² | - |
| 1778113125 | 3.89° C | 63% | 1014.8 hPa | 0 mm | - | 1 W/m² | - |
| 1778112821 | 3.89° C | 64% | 1014.8 hPa | 0 mm | - | 4 W/m² | - |
| 1778112518 | 3.89° C | 61% | 1014.8 hPa | 0 mm | - | 5 W/m² | - |
| 1778112213 | 3.89° C | 67% | 1014.8 hPa | 0 mm | - | 5 W/m² | - |
| 1778111910 | 3.89° C | 64% | 1014.8 hPa | 0 mm | - | 6 W/m² | - |
| 1778111607 | 3.89° C | 60% | 1015 hPa | 0 mm | - | 6 W/m² | - |
| 1778111303 | 3.89° C | 64% | 1014.6 hPa | 0 mm | - | 6 W/m² | - |
| 1778111001 | 3.89° C | 60% | 1014.7 hPa | 0 mm | - | 7 W/m² | - |
| 1778110698 | 3.89° C | 63% | 1014.8 hPa | 0 mm | - | 7 W/m² | - |
| 1778110394 | 3.89° C | 60% | 1015 hPa | 0 mm | - | 8 W/m² | - |
| 1778110091 | 3.89° C | 63% | 1014.8 hPa | 0 mm | - | 9 W/m² | - |
| 1778109786 | 3.89° C | 63% | 1014.8 hPa | 0 mm | - | 10 W/m² | - |
| 1778109483 | 3.89° C | 58% | 1014.5 hPa | 0 mm | - | 11 W/m² | - |
| 1778109181 | 4.44° C | 61% | 1014.9 hPa | 0 mm | - | 13 W/m² | - |
| 1778108878 | 4.44° C | 64% | 1015 hPa | 0 mm | - | 15 W/m² | - |
| 1778108575 | 4.44° C | 64% | 1014.8 hPa | 0 mm | - | 16 W/m² | - |
| 1778108271 | 3.89° C | 64% | 1014.7 hPa | 0 mm | - | 16 W/m² | - |
| 1778107969 | 3.89° C | 65% | 1014.6 hPa | 0 mm | - | 20 W/m² | - |
| 1778107665 | 4.44° C | 67% | 1014.9 hPa | 0 mm | - | 19 W/m² | - |
| 1778107363 | 4.44° C | 63% | 1014.7 hPa | 0 mm | - | 19 W/m² | - |
| 1778107059 | 4.44° C | 66% | 1014.6 hPa | 0 mm | - | 19 W/m² | - |
| 1778106754 | 4.44° C | 67% | 1014.6 hPa | 0 mm | - | 21 W/m² | - |
* Rain latest hour (hover to see other rain measurements)
** Current wind speed in m/s (hover to see current wind gust speed)